EN

Hourly Weather Dzieslaw

Today, 22 October, Thursday

Time Temperature Precipitation Wind Pressure Humidity
00:00 +13°C° 0 mm 5 mps 751 mmHg 60%
01:00 +13°C° 0 mm 4 mps 751 mmHg 59%
02:00 +13°C° 0 mm 4 mps 751 mmHg 60%
03:00 +13°C° 0 mm 4 mps 751 mmHg 60%
04:00 +13°C° 0 mm 4 mps 750 mmHg 61%
05:00 +13°C° 0 mm 4 mps 751 mmHg 62%
06:00 +13°C° 0 mm 4 mps 751 mmHg 63%
07:00 +13°C° 0 mm 4 mps 752 mmHg 64%
08:00 +14°C° 0 mm 4 mps 752 mmHg 62%
09:00 +15°C° 0 mm 4 mps 752 mmHg 60%
10:00 +17°C° 0 mm 5 mps 753 mmHg 58%
11:00 +19°C° 0 mm 4 mps 753 mmHg 57%
12:00 +20°C° 0 mm 4 mps 753 mmHg 56%
13:00 +20°C° 0 mm 4 mps 753 mmHg 55%
14:00 +20°C° 0 mm 4 mps 752 mmHg 59%
15:00 +19°C° 0 mm 3 mps 752 mmHg 64%
16:00 +18°C° 0 mm 2 mps 752 mmHg 68%
17:00 +17°C° 0 mm 2 mps 752 mmHg 70%
18:00 +16°C° 0 mm 2 mps 752 mmHg 73%
19:00 +14°C° 0 mm 3 mps 753 mmHg 75%
20:00 +14°C° 0 mm 3 mps 752 mmHg 75%
21:00 +14°C° 0 mm 3 mps 752 mmHg 74%
22:00 +14°C° 0 mm 3 mps 752 mmHg 74%
23:00 +14°C° 0 mm 3 mps 752 mmHg 74%

Tomorrow, 23 October, Friday

Time Temperature Precipitation Wind Pressure Humidity
00:00 +14°C° 0 mm 3 mps 752 mmHg 74%
01:00 +16°C° 0 mm 3 mps 752 mmHg 73%
02:00 +14°C° 0 mm 3 mps 752 mmHg 74%
03:00 +14°C° 0 mm 3 mps 752 mmHg 74%
04:00 +14°C° 0 mm 3 mps 751 mmHg 74%
05:00 +14°C° 0 mm 3 mps 751 mmHg 75%
06:00 +14°C° 0 mm 3 mps 751 mmHg 76%
07:00 +14°C° 0 mm 3 mps 751 mmHg 77%
08:00 +16°C° 0 mm 3 mps 751 mmHg 73%
09:00 +17°C° 0 mm 3 mps 751 mmHg 70%
10:00 +18°C° 0 mm 4 mps 751 mmHg 67%
11:00 +18°C° 0 mm 3 mps 751 mmHg 68%
12:00 +18°C° 0 mm 3 mps 750 mmHg 68%
13:00 +18°C° 0 mm 3 mps 750 mmHg 69%
14:00 +18°C° 0 mm 2 mps 750 mmHg 72%
15:00 +18°C° 0 mm 1 mps 750 mmHg 74%
16:00 +18°C° 0 mm 1 mps 750 mmHg 77%
17:00 +16°C° 0.5 mm 1 mps 750 mmHg 81%
18:00 +15°C° 0.5 mm 1 mps 749 mmHg 85%
19:00 +15°C° 0.5 mm 1 mps 749 mmHg 90%
20:00 +15°C° 0.4 mm 1 mps 749 mmHg 91%
21:00 +15°C° 0.4 mm 1 mps 749 mmHg 92%
22:00 +15°C° 0.4 mm 1 mps 749 mmHg 93%
23:00 +15°C° 0.5 mm 2 mps 749 mmHg 94%

Day after tomorrow, 24 October, Saturday

Time Temperature Precipitation Wind Pressure Humidity
00:00 +15°C° 0.5 mm 2 mps 749 mmHg 94%
01:00 +14°C° 0.5 mm 2 mps 749 mmHg 94%
02:00 +13°C° 0.2 mm 3 mps 749 mmHg 94%
03:00 +13°C° 0.2 mm 3 mps 749 mmHg 94%
04:00 +13°C° 0.2 mm 3 mps 749 mmHg 94%
05:00 +13°C° 0.1 mm 4 mps 749 mmHg 93%
06:00 +13°C° 0.1 mm 4 mps 750 mmHg 92%
07:00 +13°C° 0.1 mm 5 mps 750 mmHg 91%
08:00 +14°C° 0 mm 5 mps 751 mmHg 87%
09:00 +14°C° 0 mm 5 mps 751 mmHg 82%
10:00 +15°C° 0 mm 6 mps 751 mmHg 77%
11:00 +15°C° 0 mm 6 mps 752 mmHg 73%
12:00 +16°C° 0 mm 6 mps 752 mmHg 69%
13:00 +16°C° 0 mm 6 mps 752 mmHg 66%
14:00 +15°C° 0 mm 4 mps 752 mmHg 68%
15:00 +16°C° 0 mm 3 mps 753 mmHg 70%
16:00 +15°C° 0 mm 2 mps 753 mmHg 72%
17:00 +14°C° 0 mm 2 mps 753 mmHg 76%
18:00 +14°C° 0 mm 2 mps 753 mmHg 80%
19:00 +13°C° 0 mm 2 mps 754 mmHg 83%
20:00 +13°C° 0 mm 2 mps 754 mmHg 84%
21:00 +13°C° 0 mm 2 mps 754 mmHg 85%
22:00 +12°C° 0 mm 3 mps 754 mmHg 85%
23:00 +12°C° 0 mm 2 mps 754 mmHg 86%

, 25 October, Sunday

Time Temperature Precipitation Wind Pressure Humidity
00:00 +12°C° 0 mm 2 mps 754 mmHg 86%
01:00 +10°C° 0 mm 2 mps 754 mmHg 86%
02:00 +10°C° 0 mm 2 mps 754 mmHg 86%
03:00 +10°C° 0 mm 2 mps 753 mmHg 86%
04:00 +10°C° 0 mm 2 mps 753 mmHg 86%
05:00 +10°C° 0 mm 2 mps 753 mmHg 87%
06:00 +9°C° 0 mm 2 mps 753 mmHg 87%
07:00 +9°C° 0 mm 2 mps 753 mmHg 88%
08:00 +12°C° 0 mm 2 mps 753 mmHg 82%
09:00 +13°C° 0 mm 3 mps 753 mmHg 76%
10:00 +14°C° 0 mm 3 mps 753 mmHg 70%
11:00 +16°C° 0 mm 3 mps 753 mmHg 66%
12:00 +17°C° 0 mm 3 mps 752 mmHg 62%
13:00 +18°C° 0 mm 3 mps 752 mmHg 58%
14:00 +18°C° 0 mm 3 mps 752 mmHg 61%
15:00 +17°C° 0 mm 3 mps 751 mmHg 65%
16:00 +16°C° 0 mm 3 mps 751 mmHg 68%
17:00 +14°C° 0 mm 3 mps 751 mmHg 72%
18:00 +13°C° 0 mm 3 mps 750 mmHg 76%
19:00 +12°C° 0 mm 3 mps 750 mmHg 79%
20:00 +12°C° 0 mm 3 mps 750 mmHg 80%
21:00 +11°C° 0 mm 3 mps 750 mmHg 81%
22:00 +11°C° 0 mm 3 mps 750 mmHg 82%
23:00 +11°C° 0 mm 3 mps 750 mmHg 83%

25 October, Sunday

Time Temperature Precipitation Wind Pressure Humidity
00:00 +12°C° 0 mm 2 mps 754 mmHg 86%
01:00 +10°C° 0 mm 2 mps 754 mmHg 86%
02:00 +10°C° 0 mm 2 mps 754 mmHg 86%
03:00 +10°C° 0 mm 2 mps 753 mmHg 86%
04:00 +10°C° 0 mm 2 mps 753 mmHg 86%
05:00 +10°C° 0 mm 2 mps 753 mmHg 87%
06:00 +9°C° 0 mm 2 mps 753 mmHg 87%
07:00 +9°C° 0 mm 2 mps 753 mmHg 88%
08:00 +12°C° 0 mm 2 mps 753 mmHg 82%
09:00 +13°C° 0 mm 3 mps 753 mmHg 76%
10:00 +14°C° 0 mm 3 mps 753 mmHg 70%
11:00 +16°C° 0 mm 3 mps 753 mmHg 66%
12:00 +17°C° 0 mm 3 mps 752 mmHg 62%
13:00 +18°C° 0 mm 3 mps 752 mmHg 58%
14:00 +18°C° 0 mm 3 mps 752 mmHg 61%
15:00 +17°C° 0 mm 3 mps 751 mmHg 65%
16:00 +16°C° 0 mm 3 mps 751 mmHg 68%
17:00 +14°C° 0 mm 3 mps 751 mmHg 72%
18:00 +13°C° 0 mm 3 mps 750 mmHg 76%
19:00 +12°C° 0 mm 3 mps 750 mmHg 79%
20:00 +12°C° 0 mm 3 mps 750 mmHg 80%
21:00 +11°C° 0 mm 3 mps 750 mmHg 81%
22:00 +11°C° 0 mm 3 mps 750 mmHg 82%
23:00 +11°C° 0 mm 3 mps 750 mmHg 83%

26 October, Monday

Time Temperature Precipitation Wind Pressure Humidity
00:00 +11°C° 0 mm 4 mps 750 mmHg 84%
01:00 +10°C° 0 mm 4 mps 749 mmHg 85%
02:00 +10°C° 0 mm 4 mps 749 mmHg 86%
03:00 +10°C° 0 mm 3 mps 749 mmHg 87%
04:00 +9°C° 0 mm 3 mps 748 mmHg 88%
05:00 +9°C° 0 mm 3 mps 748 mmHg 89%
06:00 +9°C° 0 mm 3 mps 748 mmHg 90%
07:00 +9°C° 0 mm 3 mps 747 mmHg 91%
08:00 +10°C° 0 mm 3 mps 747 mmHg 84%
09:00 +12°C° 0 mm 4 mps 747 mmHg 78%
10:00 +14°C° 0 mm 4 mps 746 mmHg 71%
11:00 +15°C° 0 mm 4 mps 746 mmHg 68%
12:00 +17°C° 0 mm 4 mps 746 mmHg 66%
13:00 +17°C° 0 mm 5 mps 745 mmHg 63%
14:00 +17°C° 0 mm 4 mps 745 mmHg 65%
15:00 +15°C° 0 mm 4 mps 745 mmHg 68%
16:00 +16°C° 0 mm 3 mps 744 mmHg 70%
17:00 +14°C° 0.1 mm 3 mps 744 mmHg 71%
18:00 +14°C° 0.1 mm 4 mps 744 mmHg 73%
19:00 +14°C° 0.1 mm 5 mps 744 mmHg 74%
20:00 +14°C° 0 mm 4 mps 744 mmHg 75%
21:00 +13°C° 0 mm 4 mps 744 mmHg 77%
22:00 +13°C° 0 mm 4 mps 744 mmHg 78%
23:00 +13°C° 0 mm 3 mps 744 mmHg 81%

27 October, Tuesday

Time Temperature Precipitation Wind Pressure Humidity
00:00 +12°C° 0 mm 3 mps 744 mmHg 85%
01:00 +11°C° 0 mm 3 mps 744 mmHg 88%
02:00 +11°C° 0 mm 3 mps 744 mmHg 89%
03:00 +12°C° 0 mm 2 mps 745 mmHg 89%
04:00 +10°C° 0 mm 2 mps 745 mmHg 89%
05:00 +10°C° 0 mm 2 mps 745 mmHg 90%
06:00 +10°C° 0 mm 2 mps 746 mmHg 91%
07:00 +10°C° 0 mm 2 mps 746 mmHg 91%
08:00 +12°C° 0 mm 2 mps 746 mmHg 86%
09:00 +13°C° 0 mm 2 mps 747 mmHg 80%
10:00 +14°C° 0 mm 2 mps 747 mmHg 74%
11:00 +15°C° 0 mm 2 mps 747 mmHg 71%
12:00 +16°C° 0 mm 2 mps 748 mmHg 68%
13:00 +16°C° 0 mm 2 mps 748 mmHg 65%
14:00 +16°C° 0 mm 1 mps 748 mmHg 67%
15:00 +15°C° 0 mm 1 mps 748 mmHg 70%
16:00 +14°C° 0 mm 0 mps 748 mmHg 73%
17:00 +15°C° 0 mm 1 mps 748 mmHg 75%
18:00 +14°C° 0 mm 1 mps 749 mmHg 76%
19:00 +14°C° 0 mm 1 mps 749 mmHg 77%
20:00 +13°C° 0 mm 1 mps 749 mmHg 79%
21:00 +13°C° 0 mm 1 mps 750 mmHg 81%
22:00 +13°C° 0 mm 1 mps 750 mmHg 83%
23:00 +12°C° 0 mm 1 mps 750 mmHg 85%
Show more